Portada
METAR-TAF:

METAR-TAF

Aeroports :

Mackay, Austràlia

latitud: 21-10-18S, longitud: 149-10-47E, altitud: 6 m

Observació

L'informe es va fer fa 1 hora i 8 minuts, a les 00:00 UTC
Vent 12 kt del Nord/Nord-Est
Temperatura 30°C
Humitat 46%
Pressió 1013 hPa
Visibilitat 10 km o més

METAR: YBMK 140000Z AUTO 02012KT 9999 // NCD 30/17 Q1013

Hora: 11:08 (01:08 UTC)


TAF: manca

Observacions i pronòstics meteorològics de més de 4000 aeroports (METAR i TAF).

Les estacions disponibles són els punts grocs i vermells al mapa.

Posi el ratolí al punt desitjat per veure el nom de l'estació.

Feu clic per veure les observacions i els pronòstics meteorològics.

Per canviar el mapa: feu clic els botons verds amb una creu de color negre per apropar; al botó verd amb un guió per allunyar la imatge; o en les fletxes verdes per a mapes adjacents.


METAR-TAF: